Regional Weather Roundup
Issued by NWS

Home | Current Version | Previous Version | Graphics & Text | Print | Product List | Glossary On
Versions: 1 2 3 4 5 6 7 8 9 10 11 12 13 14 15 16 17 18 19 20 21 22 23 24 25 26 27 28 29 30 31 32 33 34 35 36 37 38 39 40 41 42 43 44 45 46 47 48 49 50
000
ASUS43 KIND 271909
RWRIN

WEATHER ROUNDUP FOR INDIANA
NATIONAL WEATHER SERVICE INDIANAPOLIS IN
300 PM EDT TUE JUN 27 2017

NOTE: "FAIR" INDICATES FEW OR NO CLOUDS BELOW 12,000 FEET WITH NO
SIGNIFICANT WEATHER AND/OR OBSTRUCTIONS TO VISIBILITY.

* - STATION DOES NOT REPORT WEATHER SUCH AS PRECIPITATION OR FOG.

+ - STATION NOT QUALITY CONTROLLED BY THE NATIONAL WEATHER SERVICE.
    USE DATA WITH CAUTION...ESPECIALLY DEWPOINT AND RELATIVE
    HUMIDITY OBSERVATIONS.

INZ001>003-010>013-019-020-272000-
NORTHWEST INDIANA

CITY           SKY/WX    TMP DP  RH WIND       PRES   REMARKS
GARY /AIRPORT/ MOSUNNY   73  45  35 NE7       30.11F
KNOX *+        MOSUNNY   70  34  26 NW8       30.11F
LA PORTE +     SUNNY     71  44  37 NW8       30.12F
MICHIGAN CITY+ SUNNY     72  45  37 NW5       30.12F
MONTICELLO +   MOSUNNY   70  47  42 SW10      30.12F
VALPARAISO     MOSUNNY   74  46  36 VRB7      30.11F

$$

LMZ046-743>745-272000-
SOUTHERN LAKE MICHIGAN

STATION/POSITION TIME  TEMP    WIND        PRES    WAVE
                       AIR SEA DIR/SP/G            HT
                 (UTC) (F)     (DEG/KT/KT) (MB)    (FT)
BURNS HARBOR     1840   68      60/  7/  7 1020.3F
MICHIGAN CITY    1840   67      CALM  /  1   N/A
5NW MICH CITY    1900   66 67   CALM  /  2   N/A     1

$$

INZ004-005-014>016-021>024-272000-
NORTH CENTRAL INDIANA

CITY           SKY/WX    TMP DP  RH WIND       PRES   REMARKS
ELKHART        MOSUNNY   72  43  35 W13G20    30.10
GOSHEN         PTSUNNY   72  44  36 SW16      30.10F
LOGANSPORT +   PTSUNNY   70  50  49 SW3       30.14S
PERU/GRISSOM   MOSUNNY   70  48  46 W6        30.13S
ROCHESTER +    MOSUNNY   72  45  37 W8        30.12F
SOUTH BEND     SUNNY     71  45  39 NW13G18   30.11F
WARSAW +       PTSUNNY   70  46  43 W14       30.11F

$$

INZ006>009-017-018-025>027-272000-
NORTHEAST INDIANA

CITY           SKY/WX    TMP DP  RH WIND       PRES   REMARKS
AUBURN +       MOSUNNY   70  43  37 W8        30.11F
FORT WAYNE     PTSUNNY   71  46  40 W5        30.13F
HUNTINGTON +   PTSUNNY   69  48  46 W8        30.12F
KENDALLVILLE + PTSUNNY   70  46  42 W10G18    30.11F

$$

INZ028-029-035-036-043>045-051>053-272000-
WEST CENTRAL INDIANA

CITY           SKY/WX    TMP DP  RH WIND       PRES   REMARKS
CRAWFORDSVL +  MOSUNNY   67  46  46 CALM      30.14F
GREENCASTLE +  SUNNY     72  46  40 CALM      30.15S
LAFAYETTE      PTSUNNY   72  50  45 N6        30.13F
TERRE HAUTE    SUNNY     73  44  35 CALM      30.14F

$$

INZ030>032-037>040-046>048-054>057-064-065-272000-
CENTRAL INDIANA

CITY           SKY/WX    TMP DP  RH WIND       PRES   REMARKS
CP ATTERBURY + MOSUNNY   72  48  43 NW6       30.14F
COLUMBUS       MOSUNNY   72  41  33 CALM      30.14F
FRANKFORT +    MOSUNNY   73  49  41 N7        30.16S
GREENWOOD *+   MOSUNNY   71  44  37 NE3       30.15S
INDIANAPOLIS   MOSUNNY   71  48  43 SW3       30.13F
-EAGLE CREEK   MOSUNNY   71  46  40 NW6       30.14S
KOKOMO +       MOSUNNY   70  48  45 CALM      30.15S
MARION +       MOSUNNY   68  45  42 CALM      30.14S
MT COMFORT *+  MOSUNNY   70  46  43 N5        30.14F
SHELBYVILLE    MOSUNNY   71  44  37 VRB5      30.13F
ZIONSVILLE +   SUNNY     69  46  43 W5        30.15S

$$

INZ033-034-041-042-049-050-058-059-272000-
EAST CENTRAL INDIANA

CITY           SKY/WX    TMP DP  RH WIND       PRES   REMARKS
MUNCIE         MOSUNNY   71  46  40 W7        30.13F
RICHMOND +     MOSUNNY   68  46  45 W9G16     30.14F

$$

INZ060-061-067>069-081>083-085>088-272000-
SOUTHWEST INDIANA

CITY           SKY/WX    TMP DP  RH WIND       PRES   REMARKS
EVANSVILLE     MOSUNNY   77  49  37 CALM      30.13F
HUNTINGBURG *+ SUNNY     75  51  43 CALM      30.14S
WASHINGTON +   SUNNY     73  45  36 NW5       30.14F

$$

INZ062-063-066-070>080-084-089>092-272000-
SOUTH CENTRAL AND SOUTHEAST INDIANA

CITY           SKY/WX    TMP DP  RH WIND       PRES   REMARKS
BEDFORD +      SUNNY     73  41  31 NW6       30.13F
BLOOMINGTON    MOSUNNY   74  42  31 VRB6      30.14F
MADISON *+     SUNNY     73  39  29 CALM      30.16F
NORTH VERNON + SUNNY     70  46  43 CALM      30.15F
SEYMOUR +      SUNNY     73  48  40 E5        30.13F

$$





USA.gov is the U.S. government's official web portal to all federal, state and local government web resources and services.